Tracking 19563 objects as of 20-Mar-2019
HD Live streaming from Space Station
objects crossing your sky now

BSAT-2C

Track BSAT-2C now!
BSAT-2C is classified as:


NORAD ID: 27830
Int'l Code: 2003-028A
Perigee: 36,056.3 km
Apogee: 36,139.2 km
Inclination: 4.4 °
Period: 1,451.7 minutes
Semi major axis: 42468 km
RCS: 12.6191 m2 (large)
Launch date: June 11, 2003
Source: Japan (JPN)
Launch site: FRENCH GUIANA (FRGUI)

Backup to BSAT-2A; direct digital broadcasts to homes in Japan and neighboring countries through its Ku-band transponders.
aabbcc
Your satellite tracking list
Your tracking list is empty




NASA's NSSDC Master Catalog

Two Line Element Set (TLE):
1 27830U 03028A   19078.56750311 +.00000034 +00000-0 +00000-0 0  9993
2 27830 004.3537 071.1012 0009768 246.4437 138.5921 00.99197032020401
Source of the keplerian elements: AFSPC